Location: *
(51.2167°N, 10.0667°E)
Time: 17:20:57
(UTC+00:00)

Okean-O - Pass Details

Date: 12 December 2019
Orbit: 639 x 641 km, 98.2° (Epoch: 26 January)

Event Time Altitude Azimuth Distance (km) Brightness Sun altitude
Rises 16:21:23 0° 145° (SE) 2,938 5.9 -10.1°
Reaches altitude 10° 16:23:39 10° 138° (SE) 2,033 5.0 -10.5°
Maximum altitude 16:27:51 43° 68° (ENE) 901 2.9 -11.1°
Drops below altitude 10° 16:32:04 10° 357° (N) 2,047 5.0 -11.7°
Sets 16:34:21 0° 351° (N) 2,961 5.9 -12.0°
